When you browse on this site, cookies collect data to enhance your experience and personalize the content and advertising you see.
Visit our Privacy Policy to learn more. By continuing to use the site, you agree to this use of cookies and data.
  • In Austria
  • List of Countries
  • For 7 days
  • Water Temperature
  • Weather Map
  • News
  • Weather Widgets
  • user-avatar
    Login

    Hourly Weather Tirana

    Today, 15 December, Sunday

    Time Temperature Precipitation Wind Pressure Humidity
    00:00 +9°C° 0 mm 2 mps 751 mmHg 82%
    01:00 +9°C° 0 mm 2 mps 751 mmHg 80%
    02:00 +9°C° 0 mm 2 mps 752 mmHg 79%
    03:00 +9°C° 0 mm 2 mps 752 mmHg 77%
    04:00 +9°C° 0 mm 2 mps 752 mmHg 75%
    05:00 +9°C° 0 mm 2 mps 753 mmHg 72%
    06:00 +9°C° 0 mm 2 mps 753 mmHg 70%
    07:00 +9°C° 0 mm 2 mps 754 mmHg 68%
    08:00 +10°C° 0 mm 2 mps 754 mmHg 65%
    09:00 +13°C° 0 mm 1 mps 755 mmHg 62%
    10:00 +14°C° 0 mm 1 mps 755 mmHg 59%
    11:00 +15°C° 0 mm 1 mps 755 mmHg 58%
    12:00 +16°C° 0 mm 1 mps 755 mmHg 57%
    13:00 +18°C° 0 mm 1 mps 755 mmHg 56%
    14:00 +16°C° 0 mm 2 mps 756 mmHg 61%
    15:00 +15°C° 0 mm 2 mps 756 mmHg 66%
    16:00 +14°C° 0 mm 2 mps 756 mmHg 71%
    17:00 +13°C° 0 mm 2 mps 756 mmHg 70%
    18:00 +12°C° 0 mm 3 mps 757 mmHg 70%
    19:00 +12°C° 0 mm 3 mps 757 mmHg 69%
    20:00 +12°C° 0 mm 3 mps 758 mmHg 67%
    21:00 +11°C° 0 mm 3 mps 758 mmHg 66%
    22:00 +11°C° 0 mm 3 mps 758 mmHg 64%
    23:00 +11°C° 0 mm 3 mps 759 mmHg 63%

    Tomorrow, 16 December, Monday

    Time Temperature Precipitation Wind Pressure Humidity
    00:00 +11°C° 0 mm 3 mps 759 mmHg 63%
    01:00 +11°C° 0 mm 3 mps 759 mmHg 62%
    02:00 +11°C° 0 mm 3 mps 759 mmHg 63%
    03:00 +11°C° 0 mm 3 mps 759 mmHg 64%
    04:00 +10°C° 0 mm 3 mps 759 mmHg 64%
    05:00 +10°C° 0 mm 3 mps 759 mmHg 65%
    06:00 +10°C° 0 mm 3 mps 760 mmHg 65%
    07:00 +10°C° 0 mm 3 mps 760 mmHg 66%
    08:00 +12°C° 0 mm 3 mps 760 mmHg 64%
    09:00 +13°C° 0 mm 3 mps 760 mmHg 62%
    10:00 +16°C° 0 mm 3 mps 761 mmHg 60%
    11:00 +17°C° 0 mm 2 mps 760 mmHg 58%
    12:00 +17°C° 0 mm 2 mps 760 mmHg 57%
    13:00 +18°C° 0 mm 2 mps 759 mmHg 56%
    14:00 +17°C° 0 mm 2 mps 759 mmHg 61%
    15:00 +16°C° 0 mm 2 mps 759 mmHg 66%
    16:00 +15°C° 0 mm 1 mps 760 mmHg 71%
    17:00 +14°C° 0 mm 2 mps 760 mmHg 72%
    18:00 +14°C° 0 mm 2 mps 760 mmHg 73%
    19:00 +13°C° 0 mm 2 mps 760 mmHg 75%
    20:00 +13°C° 0 mm 2 mps 760 mmHg 75%
    21:00 +13°C° 0 mm 2 mps 760 mmHg 76%
    22:00 +12°C° 0 mm 2 mps 760 mmHg 76%
    23:00 +12°C° 0 mm 2 mps 760 mmHg 77%

    Day after tomorrow, 17 December, Tuesday

    Time Temperature Precipitation Wind Pressure Humidity
    00:00 +11°C° 0 mm 3 mps 760 mmHg 77%
    01:00 +11°C° 0 mm 3 mps 760 mmHg 77%
    02:00 +11°C° 0 mm 3 mps 760 mmHg 77%
    03:00 +10°C° 0 mm 3 mps 760 mmHg 77%
    04:00 +10°C° 0 mm 3 mps 760 mmHg 78%
    05:00 +10°C° 0 mm 3 mps 760 mmHg 78%
    06:00 +10°C° 0 mm 3 mps 760 mmHg 78%
    07:00 +10°C° 0 mm 3 mps 760 mmHg 79%
    08:00 +12°C° 0 mm 3 mps 760 mmHg 74%
    09:00 +13°C° 0 mm 3 mps 760 mmHg 70%
    10:00 +16°C° 0 mm 3 mps 760 mmHg 66%
    11:00 +16°C° 0 mm 3 mps 760 mmHg 65%
    12:00 +17°C° 0 mm 3 mps 759 mmHg 64%
    13:00 +17°C° 0 mm 2 mps 759 mmHg 63%
    14:00 +16°C° 0 mm 3 mps 759 mmHg 67%
    15:00 +14°C° 0 mm 3 mps 759 mmHg 72%
    16:00 +14°C° 0 mm 3 mps 759 mmHg 76%
    17:00 +13°C° 0 mm 3 mps 759 mmHg 78%
    18:00 +12°C° 0 mm 3 mps 759 mmHg 80%
    19:00 +12°C° 0 mm 3 mps 760 mmHg 82%
    20:00 +13°C° 0 mm 2 mps 760 mmHg 82%
    21:00 +12°C° 0 mm 2 mps 760 mmHg 81%
    22:00 +12°C° 0 mm 2 mps 760 mmHg 81%
    23:00 +11°C° 0 mm 3 mps 760 mmHg 80%

    18 December, Wednesday

    Time Temperature Precipitation Wind Pressure Humidity
    00:00 +11°C° 0 mm 3 mps 760 mmHg 79%
    01:00 +11°C° 0 mm 3 mps 759 mmHg 78%
    02:00 +11°C° 0 mm 3 mps 759 mmHg 78%
    03:00 +10°C° 0 mm 3 mps 759 mmHg 77%
    04:00 +10°C° 0 mm 3 mps 759 mmHg 77%
    05:00 +10°C° 0 mm 3 mps 759 mmHg 76%
    06:00 +10°C° 0 mm 3 mps 759 mmHg 75%
    07:00 +10°C° 0 mm 3 mps 759 mmHg 74%
    08:00 +12°C° 0 mm 3 mps 759 mmHg 69%
    09:00 +14°C° 0 mm 2 mps 759 mmHg 64%
    10:00 +16°C° 0 mm 2 mps 759 mmHg 59%
    11:00 +17°C° 0 mm 2 mps 759 mmHg 57%
    12:00 +17°C° 0 mm 2 mps 758 mmHg 55%
    13:00 +19°C° 0 mm 1 mps 758 mmHg 54%
    14:00 +17°C° 0 mm 2 mps 758 mmHg 59%
    15:00 +16°C° 0 mm 2 mps 758 mmHg 65%
    16:00 +15°C° 0 mm 2 mps 758 mmHg 71%
    17:00 +14°C° 0 mm 2 mps 758 mmHg 71%
    18:00 +14°C° 0 mm 2 mps 758 mmHg 71%
    19:00 +14°C° 0 mm 2 mps 758 mmHg 71%
    20:00 +13°C° 0 mm 3 mps 758 mmHg 69%
    21:00 +12°C° 0 mm 3 mps 758 mmHg 68%
    22:00 +12°C° 0 mm 3 mps 758 mmHg 66%
    23:00 +12°C° 0 mm 3 mps 758 mmHg 65%

    19 December, Thursday

    Time Temperature Precipitation Wind Pressure Humidity
    00:00 +12°C° 0 mm 4 mps 758 mmHg 64%
    01:00 +12°C° 0 mm 4 mps 758 mmHg 63%
    02:00 +12°C° 0 mm 4 mps 757 mmHg 62%
    03:00 +12°C° 0 mm 4 mps 757 mmHg 61%
    04:00 +12°C° 0 mm 4 mps 757 mmHg 59%
    05:00 +12°C° 0 mm 4 mps 756 mmHg 58%
    06:00 +12°C° 0 mm 5 mps 756 mmHg 58%
    07:00 +12°C° 0 mm 5 mps 756 mmHg 57%
    08:00 +13°C° 0.1 mm 5 mps 756 mmHg 57%
    09:00 +14°C° 0.1 mm 5 mps 756 mmHg 57%
    10:00 +15°C° 0.1 mm 6 mps 756 mmHg 58%
    11:00 +15°C° 0.3 mm 6 mps 756 mmHg 64%
    12:00 +14°C° 0.3 mm 6 mps 755 mmHg 71%
    13:00 +12°C° 0.3 mm 7 mps 754 mmHg 77%
    14:00 +12°C° 1.2 mm 7 mps 754 mmHg 80%
    15:00 +12°C° 1.2 mm 7 mps 754 mmHg 82%
    16:00 +12°C° 1.2 mm 8 mps 754 mmHg 84%
    17:00 +12°C° 0.8 mm 8 mps 754 mmHg 84%
    18:00 +12°C° 0.8 mm 8 mps 754 mmHg 85%
    19:00 +12°C° 0.8 mm 8 mps 754 mmHg 85%
    20:00 +12°C° 0.9 mm 8 mps 754 mmHg 85%
    21:00 +12°C° 0.9 mm 8 mps 754 mmHg 85%
    22:00 +11°C° 0.9 mm 8 mps 754 mmHg 84%
    23:00 +11°C° 0.2 mm 7 mps 754 mmHg 83%

    20 December, Friday

    Time Temperature Precipitation Wind Pressure Humidity
    00:00 +11°C° 0.2 mm 7 mps 754 mmHg 81%
    01:00 +10°C° 0.2 mm 6 mps 753 mmHg 79%
    02:00 +10°C° 0.1 mm 6 mps 753 mmHg 80%
    03:00 +10°C° 0.1 mm 5 mps 753 mmHg 80%
    04:00 +10°C° 0.1 mm 5 mps 753 mmHg 80%
    05:00 +10°C° 0.1 mm 5 mps 753 mmHg 81%
    06:00 +10°C° 0.1 mm 5 mps 753 mmHg 82%
    07:00 +10°C° 0.1 mm 5 mps 753 mmHg 83%
    08:00 +12°C° 0.2 mm 5 mps 753 mmHg 83%
    09:00 +12°C° 0.2 mm 5 mps 753 mmHg 82%
    10:00 +13°C° 0.2 mm 5 mps 753 mmHg 82%
    11:00 +13°C° 1.1 mm 6 mps 753 mmHg 85%
    12:00 +12°C° 1.1 mm 7 mps 752 mmHg 88%
    13:00 +12°C° 1.1 mm 7 mps 752 mmHg 90%
    14:00 +12°C° 0.6 mm 8 mps 752 mmHg 88%
    15:00 +12°C° 0.6 mm 8 mps 752 mmHg 86%
    16:00 +12°C° 0.6 mm 8 mps 752 mmHg 84%
    17:00 +12°C° 0.5 mm 8 mps 752 mmHg 85%
    18:00 +12°C° 0.5 mm 9 mps 752 mmHg 86%
    19:00 +12°C° 0.5 mm 9 mps 751 mmHg 86%
    20:00 +12°C° 0 mm 9 mps 751 mmHg 86%
    21:00 +11°C° 0 mm 8 mps 751 mmHg 85%
    22:00 +11°C° 0 mm 8 mps 751 mmHg 84%
    23:00 +11°C° 0 mm 8 mps 750 mmHg 82%
    Show more